Weather History for KFCM - February, 2013

Change the Weather History Date:

Saturday, February 23, 2013

  Actual Average Record
Temperature  
Mean Temperature 20 °F -  
Max Temperature 25 °F 29 °F 52 °F (2002)
Min Temperature 14 °F 15 °F -13 °F (2015)
Degree Days  
Heating Degree Days 46    
Moisture  
Dew Point 16 °F    
Average Humidity 83    
Maximum Humidity 92    
Minimum Humidity 74    
Precipitation  
Precipitation 0.00 in - - ()
Sea Level Pressure  
Sea Level Pressure 29.90 in    
Wind  
Wind Speed 5 mph (SW)    
Max Wind Speed 12 mph    
Max Gust Speed -    
Visibility 8 miles    
Events Snow    
Averages and records for this station are not official NWS values.
T = Trace of Precipitation, MM = Missing Value Source: NWS Daily Summary

Daily Weather History Graph

Daily Weather History Graph

Search for Another Location

Airport or City:

Trip Planner

Search our weather history database for the weather conditions in past years. The results will help you decide how hot, cold, wet, or windy it might be!

Date:

Astronomy

Feb. 23, 2013 Rise Set
Actual Time 7:01 AM CST 5:53 PM CST
Civil Twilight 6:31 AM CST 6:23 PM CST
Nautical Twilight 5:57 AM CST 6:57 PM CST
Astronomical Twilight 5:23 AM CST 7:31 PM CST
Moon 4:02 PM CST (2/23) 5:27 AM CST (2/23)
Length of Visible Light 11h 51m
Length of Day
10h 52m
Waxing Gibbous, 95% of the Moon is Illuminated
Feb 23
Waxing Gibbous
Feb 25
Full
Mar 4
Last Quarter
Mar 11
New
Mar 19
First Quarter

Hourly Weather History & Observations

Time (CST) Temp. Windchill Dew Point Humidity Pressure Visibility Wind Dir Wind Speed Gust Speed Precip Events Conditions
12:53 AM 19.9 °F 12.1 °F 17.1 °F 89% 29.89 in 8.0 mi WSW 5.8 mph - 0.00 in Snow Light Snow
1:53 AM 19.9 °F 12.1 °F 17.1 °F 89% 29.88 in 7.0 mi WSW 5.8 mph - 0.00 in Snow Light Snow
2:53 AM 19.9 °F 13.4 °F 17.1 °F 89% 29.88 in 6.0 mi WSW 4.6 mph - 0.00 in Snow Light Snow
3:53 AM 19.9 °F 11.1 °F 16.0 °F 85% 29.87 in 5.0 mi SW 6.9 mph - 0.00 in Snow Light Snow
4:53 AM 19.0 °F 11.1 °F 15.1 °F 85% 29.88 in 7.0 mi WSW 5.8 mph - 0.00 in Snow Light Snow
5:18 AM 19.4 °F 11.5 °F 15.8 °F 86% 29.84 in 7.0 mi WSW 5.8 mph - 0.00 in Snow Light Snow
5:53 AM 19.0 °F 13.9 °F 15.1 °F 85% 29.88 in 6.0 mi WSW 3.5 mph - 0.00 in Snow Light Snow
6:22 AM 19.4 °F 12.8 °F 15.8 °F 86% 29.84 in 7.0 mi SW 4.6 mph - 0.00 in Snow Light Snow
6:53 AM 19.0 °F 12.3 °F 16.0 °F 88% 29.89 in 7.0 mi WSW 4.6 mph - 0.00 in Snow Light Snow
7:08 AM 19.4 °F - 15.8 °F 86% 29.85 in 7.0 mi Calm Calm - N/A   Overcast
7:53 AM 19.0 °F - 16.0 °F 88% 29.89 in 6.0 mi Calm Calm - N/A   Overcast
8:53 AM 19.9 °F - 17.1 °F 89% 29.89 in 7.0 mi Calm Calm - N/A   Overcast
9:53 AM 21.0 °F 11.4 °F 16.0 °F 81% 29.90 in 7.0 mi SW 8.1 mph - N/A   Overcast
10:53 AM 21.9 °F 14.5 °F 17.1 °F 82% 29.91 in 8.0 mi WSW 5.8 mph - N/A   Overcast
11:46 AM 24.8 °F 16.9 °F 17.6 °F 74% 29.86 in 8.0 mi SW 6.9 mph - N/A   Overcast
11:53 AM 24.1 °F 16.0 °F 18.0 °F 77% 29.91 in 9.0 mi SW 6.9 mph - N/A   Overcast
12:21 PM 23.0 °F 12.4 °F 15.8 °F 74% 29.86 in 9.0 mi SW 10.4 mph - N/A   Overcast
12:53 PM 23.0 °F 13.1 °F 17.1 °F 78% 29.90 in 9.0 mi SW 9.2 mph - N/A   Scattered Clouds
1:53 PM 25.0 °F 16.3 °F 19.0 °F 78% 29.89 in 7.0 mi SW 8.1 mph - N/A   Clear
2:41 PM 24.8 °F 14.6 °F 19.4 °F 80% 29.85 in 8.0 mi SW 10.4 mph - N/A   Mostly Cloudy
2:53 PM 25.0 °F 14.8 °F 19.0 °F 78% 29.89 in 8.0 mi SW 10.4 mph - N/A   Mostly Cloudy
3:17 PM 24.8 °F 14.0 °F 19.4 °F 80% 29.85 in 8.0 mi WSW 11.5 mph - N/A   Scattered Clouds
3:53 PM 24.1 °F 13.1 °F 19.0 °F 81% 29.90 in 10.0 mi WSW 11.5 mph - N/A   Scattered Clouds
4:11 PM 24.8 °F 17.9 °F 19.4 °F 80% 29.86 in 10.0 mi WSW 5.8 mph - N/A   Mostly Cloudy
4:53 PM 24.1 °F 16.0 °F 19.0 °F 81% 29.91 in 10.0 mi SW 6.9 mph - N/A   Mostly Cloudy
5:27 PM 23.0 °F 14.7 °F 17.6 °F 80% 29.87 in 10.0 mi WSW 6.9 mph - N/A   Partly Cloudy
5:53 PM 21.0 °F 12.4 °F 15.1 °F 78% 29.92 in 9.0 mi SW 6.9 mph - N/A   Clear
6:36 PM 19.4 °F 12.8 °F 15.8 °F 86% 29.89 in 10.0 mi WSW 4.6 mph - N/A   Mostly Cloudy
6:53 PM 21.0 °F 16.2 °F 16.0 °F 81% 29.94 in 10.0 mi WSW 3.5 mph - N/A   Overcast
7:53 PM 21.0 °F - 15.1 °F 78% 29.95 in 10.0 mi Calm Calm - N/A   Overcast
8:50 PM 19.4 °F - 14.0 °F 80% 29.91 in 9.0 mi Calm Calm - N/A   Scattered Clouds
8:53 PM 18.0 °F - 14.0 °F 84% 29.96 in 9.0 mi Calm Calm - N/A   Partly Cloudy
9:53 PM 14.0 °F 8.2 °F 12.0 °F 92% 29.97 in 6.0 mi SW 3.5 mph - N/A   Clear
10:45 PM 15.8 °F 8.6 °F 12.2 °F 86% 29.94 in 7.0 mi WSW 4.6 mph - N/A   Mostly Cloudy
10:53 PM 16.0 °F 8.8 °F 12.9 °F 88% 29.99 in 7.0 mi WSW 4.6 mph - N/A   Mostly Cloudy
11:53 PM 17.1 °F - 12.0 °F 81% 29.99 in 8.0 mi Calm Calm - N/A   Overcast